When you browse on this site, cookies collect data to enhance your experience and personalize the content and advertising you see.
Visit our Privacy Policy to learn more. By continuing to use the site, you agree to this use of cookies and data.
  • In Sweden
  • List of Countries
  • For 7 days
  • Water Temperature
  • Satellite Maps
  • Weather Map
  • Weather Widgets
  • user-avatar
    Login

    Hourly Weather Ban Chiang

    Today, 19 May, Sunday

    Time Temperature Precipitation Wind Pressure Humidity
    00:00 +34°C° 0 mm 4 mps 739 mmHg 50%
    01:00 +34°C° 0 mm 3 mps 740 mmHg 53%
    02:00 +33°C° 0 mm 4 mps 739 mmHg 55%
    03:00 +33°C° 0 mm 4 mps 739 mmHg 56%
    04:00 +33°C° 0 mm 4 mps 739 mmHg 58%
    05:00 +33°C° 0 mm 4 mps 740 mmHg 58%
    06:00 +33°C° 0 mm 4 mps 740 mmHg 58%
    07:00 +34°C° 0 mm 4 mps 741 mmHg 59%
    08:00 +36°C° 0 mm 4 mps 741 mmHg 54%
    09:00 +37°C° 0 mm 4 mps 741 mmHg 49%
    10:00 +40°C° 0 mm 4 mps 741 mmHg 43%
    11:00 +40°C° 0 mm 3 mps 741 mmHg 41%
    12:00 +40°C° 0 mm 3 mps 740 mmHg 38%
    13:00 +42°C° 0 mm 3 mps 740 mmHg 35%
    14:00 +41°C° 0 mm 2 mps 740 mmHg 35%
    15:00 +41°C° 0 mm 2 mps 739 mmHg 35%
    16:00 +41°C° 0 mm 2 mps 739 mmHg 35%
    17:00 +40°C° 0 mm 2 mps 739 mmHg 37%
    18:00 +39°C° 0 mm 2 mps 739 mmHg 39%
    19:00 +37°C° 0 mm 1 mps 739 mmHg 41%
    20:00 +36°C° 0 mm 1 mps 739 mmHg 42%
    21:00 +36°C° 0 mm 1 mps 740 mmHg 43%
    22:00 +35°C° 0 mm 1 mps 740 mmHg 44%
    23:00 +36°C° 0 mm 2 mps 740 mmHg 46%

    Tomorrow, 20 May, Monday

    Time Temperature Precipitation Wind Pressure Humidity
    00:00 +35°C° 0 mm 2 mps 740 mmHg 47%
    01:00 +35°C° 0 mm 2 mps 740 mmHg 49%
    02:00 +34°C° 0 mm 2 mps 740 mmHg 51%
    03:00 +33°C° 0 mm 1 mps 740 mmHg 54%
    04:00 +32°C° 0 mm 1 mps 739 mmHg 56%
    05:00 +33°C° 0 mm 1 mps 740 mmHg 56%
    06:00 +33°C° 0 mm 1 mps 740 mmHg 55%
    07:00 +33°C° 0 mm 1 mps 741 mmHg 55%
    08:00 +36°C° 0 mm 2 mps 741 mmHg 50%
    09:00 +38°C° 0 mm 2 mps 741 mmHg 45%
    10:00 +39°C° 0 mm 3 mps 741 mmHg 39%
    11:00 +40°C° 0 mm 3 mps 741 mmHg 37%
    12:00 +43°C° 0 mm 3 mps 741 mmHg 34%
    13:00 +43°C° 0 mm 2 mps 740 mmHg 31%
    14:00 +42°C° 0 mm 2 mps 739 mmHg 32%
    15:00 +42°C° 0 mm 2 mps 739 mmHg 33%
    16:00 +41°C° 0 mm 2 mps 738 mmHg 34%
    17:00 +40°C° 0 mm 2 mps 738 mmHg 35%
    18:00 +39°C° 0 mm 2 mps 738 mmHg 37%
    19:00 +38°C° 0 mm 2 mps 738 mmHg 38%
    20:00 +38°C° 0 mm 2 mps 739 mmHg 40%
    21:00 +37°C° 0 mm 2 mps 739 mmHg 42%
    22:00 +37°C° 0 mm 2 mps 740 mmHg 43%
    23:00 +36°C° 0 mm 2 mps 740 mmHg 46%

    Day after tomorrow, 21 May, Tuesday

    Time Temperature Precipitation Wind Pressure Humidity
    00:00 +35°C° 0 mm 3 mps 740 mmHg 49%
    01:00 +35°C° 0 mm 4 mps 739 mmHg 52%
    02:00 +34°C° 0 mm 3 mps 739 mmHg 54%
    03:00 +34°C° 0 mm 2 mps 739 mmHg 56%
    04:00 +32°C° 0 mm 1 mps 738 mmHg 59%
    05:00 +32°C° 0.9 mm 1 mps 739 mmHg 61%
    06:00 +32°C° 0.9 mm 2 mps 740 mmHg 63%
    07:00 +32°C° 0.9 mm 2 mps 741 mmHg 65%
    08:00 +35°C° 0 mm 2 mps 741 mmHg 59%
    09:00 +35°C° 0 mm 1 mps 742 mmHg 54%
    10:00 +37°C° 0 mm 1 mps 742 mmHg 49%
    11:00 +37°C° 0 mm 1 mps 742 mmHg 47%
    12:00 +39°C° 0 mm 2 mps 741 mmHg 44%
    13:00 +40°C° 0 mm 2 mps 741 mmHg 42%
    14:00 +39°C° 0 mm 2 mps 740 mmHg 44%
    15:00 +39°C° 0 mm 2 mps 740 mmHg 47%
    16:00 +38°C° 0 mm 2 mps 739 mmHg 49%
    17:00 +37°C° 0 mm 3 mps 739 mmHg 51%
    18:00 +37°C° 0 mm 3 mps 739 mmHg 53%
    19:00 +36°C° 0 mm 4 mps 740 mmHg 54%
    20:00 +34°C° 1.9 mm 4 mps 740 mmHg 62%
    21:00 +33°C° 1.9 mm 4 mps 741 mmHg 70%
    22:00 +32°C° 1.9 mm 4 mps 741 mmHg 77%
    23:00 +30°C° 0.3 mm 3 mps 741 mmHg 78%

    22 May, Wednesday

    Time Temperature Precipitation Wind Pressure Humidity
    00:00 +30°C° 0.3 mm 2 mps 741 mmHg 79%
    01:00 +30°C° 0.3 mm 1 mps 741 mmHg 81%
    02:00 +30°C° 0.4 mm 1 mps 740 mmHg 81%
    03:00 +30°C° 0.4 mm 1 mps 740 mmHg 81%
    04:00 +30°C° 0.4 mm 1 mps 740 mmHg 82%
    05:00 +30°C° 1 mm 1 mps 740 mmHg 81%
    06:00 +30°C° 1 mm 2 mps 741 mmHg 80%
    07:00 +30°C° 1 mm 2 mps 741 mmHg 79%
    08:00 +31°C° 0.1 mm 2 mps 741 mmHg 74%
    09:00 +32°C° 0.1 mm 2 mps 742 mmHg 70%
    10:00 +34°C° 0.1 mm 2 mps 742 mmHg 66%
    11:00 +35°C° 0 mm 2 mps 742 mmHg 60%
    12:00 +36°C° 0 mm 2 mps 741 mmHg 55%
    13:00 +37°C° 0 mm 2 mps 741 mmHg 49%
    14:00 +37°C° 0 mm 2 mps 740 mmHg 48%
    15:00 +36°C° 0 mm 1 mps 740 mmHg 47%
    16:00 +37°C° 0 mm 1 mps 739 mmHg 45%
    17:00 +36°C° 0 mm 1 mps 739 mmHg 48%
    18:00 +35°C° 0 mm 1 mps 740 mmHg 50%
    19:00 +34°C° 0 mm 1 mps 740 mmHg 53%
    20:00 +33°C° 0.1 mm 1 mps 740 mmHg 55%
    21:00 +33°C° 0.1 mm 1 mps 740 mmHg 58%
    22:00 +32°C° 0.1 mm 1 mps 741 mmHg 60%
    23:00 +31°C° 2.1 mm 1 mps 741 mmHg 66%

    23 May, Thursday

    Time Temperature Precipitation Wind Pressure Humidity
    00:00 +30°C° 2.1 mm 1 mps 741 mmHg 72%
    01:00 +29°C° 2.1 mm 1 mps 741 mmHg 78%
    02:00 +29°C° 0.8 mm 1 mps 741 mmHg 80%
    03:00 +29°C° 0.8 mm 1 mps 740 mmHg 82%
    04:00 +29°C° 0.8 mm 1 mps 740 mmHg 84%
    05:00 +29°C° 0.3 mm 1 mps 741 mmHg 82%
    06:00 +30°C° 0.3 mm 1 mps 741 mmHg 81%
    07:00 +30°C° 0.3 mm 1 mps 742 mmHg 79%
    08:00 +31°C° 1 mm 1 mps 742 mmHg 73%
    09:00 +32°C° 1 mm 1 mps 742 mmHg 67%
    10:00 +34°C° 1 mm 2 mps 742 mmHg 61%
    11:00 +35°C° 0 mm 3 mps 742 mmHg 56%
    12:00 +36°C° 0 mm 3 mps 742 mmHg 52%
    13:00 +37°C° 0 mm 4 mps 741 mmHg 48%
    14:00 +37°C° 0 mm 4 mps 741 mmHg 48%
    15:00 +37°C° 0 mm 4 mps 740 mmHg 47%
    16:00 +37°C° 0 mm 3 mps 740 mmHg 47%
    17:00 +35°C° 0 mm 4 mps 740 mmHg 54%
    18:00 +33°C° 0 mm 5 mps 740 mmHg 60%
    19:00 +32°C° 0 mm 6 mps 741 mmHg 66%
    20:00 +30°C° 0 mm 5 mps 741 mmHg 69%
    21:00 +30°C° 0 mm 5 mps 741 mmHg 72%
    22:00 +29°C° 0 mm 4 mps 742 mmHg 74%
    23:00 +29°C° 0 mm 4 mps 741 mmHg 75%

    24 May, Friday

    Time Temperature Precipitation Wind Pressure Humidity
    00:00 +29°C° 0 mm 3 mps 741 mmHg 75%
    01:00 +29°C° 0 mm 3 mps 741 mmHg 76%
    02:00 +28°C° 2.3 mm 2 mps 741 mmHg 80%
    03:00 +28°C° 2.3 mm 2 mps 740 mmHg 84%
    04:00 +27°C° 2.3 mm 1 mps 740 mmHg 88%
    05:00 +28°C° 0.6 mm 1 mps 741 mmHg 85%
    06:00 +28°C° 0.6 mm 1 mps 741 mmHg 83%
    07:00 +29°C° 0.6 mm 1 mps 742 mmHg 80%
    08:00 +31°C° 0.3 mm 2 mps 742 mmHg 73%
    09:00 +32°C° 0.3 mm 2 mps 742 mmHg 65%
    10:00 +35°C° 0.3 mm 3 mps 742 mmHg 58%
    11:00 +36°C° 0 mm 3 mps 741 mmHg 54%
    12:00 +36°C° 0 mm 3 mps 741 mmHg 51%
    13:00 +37°C° 0 mm 3 mps 740 mmHg 48%
    14:00 +37°C° 0 mm 3 mps 740 mmHg 48%
    15:00 +37°C° 0 mm 3 mps 739 mmHg 48%
    16:00 +37°C° 0 mm 3 mps 739 mmHg 48%
    17:00 +36°C° 0.3 mm 3 mps 739 mmHg 55%
    18:00 +34°C° 0.3 mm 3 mps 739 mmHg 61%
    19:00 +33°C° 0.3 mm 3 mps 739 mmHg 67%
    20:00 +31°C° 1.9 mm 2 mps 740 mmHg 72%
    21:00 +30°C° 1.9 mm 2 mps 740 mmHg 77%
    22:00 +29°C° 1.9 mm 2 mps 740 mmHg 82%
    23:00 +29°C° 1.3 mm 2 mps 740 mmHg 82%
    Show more